Year,Month,Day,Hour,Minute,Value (Times are PST for windspeed in km/hr)
2013,02,21,00,00,0.00
2013,02,21,00,01,0.00
2013,02,21,00,02,0.00
2013,02,21,00,03,0.00
2013,02,21,00,04,0.00
2013,02,21,00,05,0.00
2013,02,21,00,06,0.00
2013,02,21,00,07,0.00
2013,02,21,00,08,0.00
2013,02,21,00,09,0.00
2013,02,21,00,10,0.00
2013,02,21,00,11,0.00
2013,02,21,00,12,0.00
2013,02,21,00,13,0.00
2013,02,21,00,14,0.00
2013,02,21,00,15,0.00
2013,02,21,00,16,0.00
2013,02,21,00,17,0.00
2013,02,21,00,18,0.00
2013,02,21,00,19,0.00
2013,02,21,00,20,0.00
2013,02,21,00,21,0.00
2013,02,21,00,22,0.00
2013,02,21,00,23,0.00
2013,02,21,00,24,0.00
2013,02,21,00,25,0.00
2013,02,21,00,26,0.00
2013,02,21,00,27,0.00
2013,02,21,00,28,0.00
2013,02,21,00,29,0.00
2013,02,21,00,30,0.00
2013,02,21,00,31,0.00
2013,02,21,00,32,0.00
2013,02,21,00,33,0.00
2013,02,21,00,34,0.00
2013,02,21,00,35,0.00
2013,02,21,00,36,0.00
2013,02,21,00,37,0.00
2013,02,21,00,38,0.00
2013,02,21,00,39,0.00
2013,02,21,00,40,0.00
2013,02,21,00,41,0.00
2013,02,21,00,42,0.00
2013,02,21,00,43,0.00
2013,02,21,00,44,0.00
2013,02,21,00,45,0.00
2013,02,21,00,46,0.00
2013,02,21,00,47,1.10
2013,02,21,00,48,0.00
2013,02,21,00,49,0.00
2013,02,21,00,50,0.00
2013,02,21,00,51,0.00
2013,02,21,00,52,0.00
2013,02,21,00,53,0.00
2013,02,21,00,54,0.00
2013,02,21,00,55,0.00
2013,02,21,00,56,0.00
2013,02,21,00,57,0.00
2013,02,21,00,58,0.00
2013,02,21,00,59,0.00
2013,02,21,01,00,0.00
2013,02,21,01,01,0.00
2013,02,21,01,02,0.00
2013,02,21,01,03,0.00
2013,02,21,01,04,0.00
2013,02,21,01,05,0.00
2013,02,21,01,06,0.00
2013,02,21,01,07,0.00
2013,02,21,01,08,0.00
2013,02,21,01,09,0.00
2013,02,21,01,10,0.00
2013,02,21,01,11,0.00
2013,02,21,01,12,0.00
2013,02,21,01,13,0.00
2013,02,21,01,14,0.00
2013,02,21,01,15,0.00
2013,02,21,01,16,5.40
2013,02,21,01,17,6.70
2013,02,21,01,18,6.40
2013,02,21,01,19,1.00
2013,02,21,01,20,0.00
2013,02,21,01,21,0.00
2013,02,21,01,22,1.30
2013,02,21,01,23,2.60
2013,02,21,01,24,0.60
2013,02,21,01,25,0.50
2013,02,21,01,26,0.10
2013,02,21,01,27,4.60
2013,02,21,01,28,0.10
2013,02,21,01,29,0.00
2013,02,21,01,30,0.00
2013,02,21,01,31,0.00
2013,02,21,01,32,0.00
2013,02,21,01,33,0.00
2013,02,21,01,34,0.00
2013,02,21,01,35,0.00
2013,02,21,01,36,0.00
2013,02,21,01,37,4.80
2013,02,21,01,38,1.30
2013,02,21,01,39,0.90
2013,02,21,01,40,4.80
2013,02,21,01,41,2.40
2013,02,21,01,42,3.40
2013,02,21,01,43,0.00
2013,02,21,01,44,0.00
2013,02,21,01,45,0.00
2013,02,21,01,46,0.00
2013,02,21,01,47,0.00
2013,02,21,01,48,0.00
2013,02,21,01,49,0.00
2013,02,21,01,50,0.00
2013,02,21,01,51,0.00
2013,02,21,01,52,0.00
2013,02,21,01,53,1.90
2013,02,21,01,54,5.00
2013,02,21,01,55,5.40
2013,02,21,01,56,5.80
2013,02,21,01,57,6.10
2013,02,21,01,58,0.40
2013,02,21,01,59,0.00
2013,02,21,02,00,0.00
2013,02,21,02,01,0.00
2013,02,21,02,02,0.00
2013,02,21,02,03,0.00
2013,02,21,02,04,0.00
2013,02,21,02,05,0.00
2013,02,21,02,06,0.00
2013,02,21,02,07,0.00
2013,02,21,02,08,0.00
2013,02,21,02,09,0.00
2013,02,21,02,10,0.00
2013,02,21,02,11,0.00
2013,02,21,02,12,0.00
2013,02,21,02,13,0.00
2013,02,21,02,14,0.00
2013,02,21,02,15,9.10
2013,02,21,02,16,8.80
2013,02,21,02,17,8.80
2013,02,21,02,18,8.50
2013,02,21,02,19,1.40
2013,02,21,02,20,0.00
2013,02,21,02,21,0.00
2013,02,21,02,22,0.00
2013,02,21,02,23,0.00
2013,02,21,02,24,0.00
2013,02,21,02,25,0.00
2013,02,21,02,26,0.00
2013,02,21,02,27,3.70
2013,02,21,02,28,5.50
2013,02,21,02,29,5.10
2013,02,21,02,30,2.60
2013,02,21,02,31,0.00
2013,02,21,02,32,0.00
2013,02,21,02,33,0.00
2013,02,21,02,34,0.00
2013,02,21,02,35,0.00
2013,02,21,02,36,0.00
2013,02,21,02,37,0.00
2013,02,21,02,38,0.00
2013,02,21,02,39,0.00
2013,02,21,02,40,0.00
2013,02,21,02,41,0.00
2013,02,21,02,42,0.00
2013,02,21,02,43,0.00
2013,02,21,02,44,0.00
2013,02,21,02,45,0.00
2013,02,21,02,46,0.00
2013,02,21,02,47,0.00
2013,02,21,02,48,0.00
2013,02,21,02,49,0.00
2013,02,21,02,50,0.00
2013,02,21,02,51,0.00
2013,02,21,02,52,0.00
2013,02,21,02,53,0.00
2013,02,21,02,54,0.00
2013,02,21,02,55,0.00
2013,02,21,02,56,0.00
2013,02,21,02,57,0.00
2013,02,21,02,58,0.00
2013,02,21,02,59,0.00
2013,02,21,03,00,0.00
2013,02,21,03,01,0.00
2013,02,21,03,02,0.00
2013,02,21,03,03,0.00
2013,02,21,03,04,0.00
2013,02,21,03,05,0.00
2013,02,21,03,06,5.60
2013,02,21,03,07,2.00
2013,02,21,03,08,0.00
2013,02,21,03,09,0.00
2013,02,21,03,10,0.00
2013,02,21,03,11,0.00
2013,02,21,03,12,0.00
2013,02,21,03,13,0.00
2013,02,21,03,14,0.00
2013,02,21,03,15,0.00
2013,02,21,03,16,0.00
2013,02,21,03,17,0.00
2013,02,21,03,18,0.00
2013,02,21,03,19,0.00
2013,02,21,03,20,0.00
2013,02,21,03,21,0.00
2013,02,21,03,22,0.00
2013,02,21,03,23,0.00
2013,02,21,03,24,0.00
2013,02,21,03,25,0.00
2013,02,21,03,26,0.00
2013,02,21,03,27,0.00
2013,02,21,03,28,0.00
2013,02,21,03,29,0.00
2013,02,21,03,30,0.00
2013,02,21,03,31,0.00
2013,02,21,03,32,0.00
2013,02,21,03,33,0.00
2013,02,21,03,34,0.00
2013,02,21,03,35,0.00
2013,02,21,03,36,0.00
2013,02,21,03,37,0.00
2013,02,21,03,38,0.00
2013,02,21,03,39,0.00
2013,02,21,03,40,0.00
2013,02,21,03,41,0.00
2013,02,21,03,42,0.00
2013,02,21,03,43,0.00
2013,02,21,03,44,0.00
2013,02,21,03,45,0.00
2013,02,21,03,46,0.00
2013,02,21,03,47,0.00
2013,02,21,03,48,0.00
2013,02,21,03,49,0.00
2013,02,21,03,50,0.00
2013,02,21,03,51,0.00
2013,02,21,03,52,0.00
2013,02,21,03,53,0.00
2013,02,21,03,54,0.00
2013,02,21,03,55,0.00
2013,02,21,03,56,0.00
2013,02,21,03,57,0.00
2013,02,21,03,58,0.00
2013,02,21,03,59,0.00
2013,02,21,04,00,0.00
2013,02,21,04,01,0.00
2013,02,21,04,02,0.00
2013,02,21,04,03,0.00
2013,02,21,04,04,0.00
2013,02,21,04,05,0.00
2013,02,21,04,06,3.70
2013,02,21,04,07,2.70
2013,02,21,04,08,6.10
2013,02,21,04,09,5.10
2013,02,21,04,10,0.80
2013,02,21,04,11,0.00
2013,02,21,04,12,0.00
2013,02,21,04,13,0.00
2013,02,21,04,14,0.00
2013,02,21,04,15,0.00
2013,02,21,04,16,0.00
2013,02,21,04,17,0.00
2013,02,21,04,18,0.00
2013,02,21,04,19,0.00
2013,02,21,04,20,0.00
2013,02,21,04,21,0.00
2013,02,21,04,22,0.00
2013,02,21,04,23,0.00
2013,02,21,04,24,1.40
2013,02,21,04,25,0.00
2013,02,21,04,26,0.00
2013,02,21,04,27,0.00
2013,02,21,04,28,6.10
2013,02,21,04,29,7.60
2013,02,21,04,30,10.00
2013,02,21,04,31,8.30
2013,02,21,04,32,7.80
2013,02,21,04,33,7.80
2013,02,21,04,34,8.60
2013,02,21,04,35,4.30
2013,02,21,04,36,8.80
2013,02,21,04,37,5.50
2013,02,21,04,38,3.70
2013,02,21,04,39,1.80
2013,02,21,04,40,6.60
2013,02,21,04,41,5.90
2013,02,21,04,42,6.90
2013,02,21,04,43,0.60
2013,02,21,04,44,0.00
2013,02,21,04,45,1.70
2013,02,21,04,46,0.00
2013,02,21,04,47,7.40
2013,02,21,04,48,2.50
2013,02,21,04,49,5.30
2013,02,21,04,50,0.50
2013,02,21,04,51,2.30
2013,02,21,04,52,8.00
2013,02,21,04,53,8.20
2013,02,21,04,54,6.60
2013,02,21,04,55,8.80
2013,02,21,04,56,6.10
2013,02,21,04,57,4.90
2013,02,21,04,58,4.00
2013,02,21,04,59,7.60
2013,02,21,05,00,8.20
2013,02,21,05,01,4.30
2013,02,21,05,02,4.70
2013,02,21,05,03,2.40
2013,02,21,05,04,1.40
2013,02,21,05,05,8.70
2013,02,21,05,06,2.10
2013,02,21,05,07,4.90
2013,02,21,05,08,15.70
2013,02,21,05,09,7.50
2013,02,21,05,10,8.40
2013,02,21,05,11,12.00
2013,02,21,05,12,13.50
2013,02,21,05,13,10.00
2013,02,21,05,14,11.50
2013,02,21,05,15,14.20
2013,02,21,05,16,13.80
2013,02,21,05,17,20.20
2013,02,21,05,18,20.00
2013,02,21,05,19,18.60
2013,02,21,05,20,20.80
2013,02,21,05,21,16.30
2013,02,21,05,22,18.10
2013,02,21,05,23,20.50
2013,02,21,05,24,15.00
2013,02,21,05,25,17.10
2013,02,21,05,26,15.50
2013,02,21,05,27,15.90
2013,02,21,05,28,14.40
2013,02,21,05,29,17.10
2013,02,21,05,30,19.10
2013,02,21,05,31,23.50
2013,02,21,05,32,22.90
2013,02,21,05,33,18.80
2013,02,21,05,34,28.20
2013,02,21,05,35,30.10
2013,02,21,05,36,30.70
2013,02,21,05,37,29.90
2013,02,21,05,38,19.60
2013,02,21,05,39,14.60
2013,02,21,05,40,18.30
2013,02,21,05,41,27.90
2013,02,21,05,42,25.30
2013,02,21,05,43,21.30
2013,02,21,05,44,22.10
2013,02,21,05,45,22.90
2013,02,21,05,46,18.40
2013,02,21,05,47,26.80
2013,02,21,05,48,25.80
2013,02,21,05,49,17.70
2013,02,21,05,50,19.80
2013,02,21,05,51,13.70
2013,02,21,05,52,8.70
2013,02,21,05,53,11.40
2013,02,21,05,54,10.60
2013,02,21,05,55,19.60
2013,02,21,05,56,21.50
2013,02,21,05,57,23.00
2013,02,21,05,58,26.20
2013,02,21,05,59,28.90
2013,02,21,06,00,28.20
2013,02,21,06,01,33.00
2013,02,21,06,02,42.30
2013,02,21,06,03,32.70
2013,02,21,06,04,31.20
2013,02,21,06,05,24.80
2013,02,21,06,06,35.30
2013,02,21,06,07,34.10
2013,02,21,06,08,30.20
2013,02,21,06,09,26.90
2013,02,21,06,10,29.60
2013,02,21,06,11,29.60
2013,02,21,06,12,28.30
2013,02,21,06,13,30.40
2013,02,21,06,14,21.00
2013,02,21,06,15,27.40
2013,02,21,06,16,27.60
2013,02,21,06,17,29.00
2013,02,21,06,18,30.30
2013,02,21,06,19,25.10
2013,02,21,06,20,24.60
2013,02,21,06,21,21.20
2013,02,21,06,22,26.60
2013,02,21,06,23,23.30
2013,02,21,06,24,26.60
2013,02,21,06,25,33.60
2013,02,21,06,26,26.60
2013,02,21,06,27,27.60
2013,02,21,06,28,29.60
2013,02,21,06,29,31.50
2013,02,21,06,30,22.80
2013,02,21,06,31,20.20
2013,02,21,06,32,25.90
2013,02,21,06,33,23.70
2013,02,21,06,34,26.60
2013,02,21,06,35,18.50
2013,02,21,06,36,22.20
2013,02,21,06,37,25.00
2013,02,21,06,38,18.90
2013,02,21,06,39,18.10
2013,02,21,06,40,21.80
2013,02,21,06,41,19.00
2013,02,21,06,42,22.10
2013,02,21,06,43,21.30
2013,02,21,06,44,15.30
2013,02,21,06,45,17.30
2013,02,21,06,46,28.50
2013,02,21,06,47,27.00
2013,02,21,06,48,26.20
2013,02,21,06,49,24.10
2013,02,21,06,50,29.40
2013,02,21,06,51,22.90
2013,02,21,06,52,19.00
2013,02,21,06,53,18.50
2013,02,21,06,54,14.10
2013,02,21,06,55,20.10
2013,02,21,06,56,18.70
2013,02,21,06,57,16.10
2013,02,21,06,58,15.70
2013,02,21,06,59,16.70
2013,02,21,07,00,15.90
2013,02,21,07,01,16.40
2013,02,21,07,02,17.70
2013,02,21,07,03,22.60
2013,02,21,07,04,19.50
2013,02,21,07,05,13.10
2013,02,21,07,06,11.30
2013,02,21,07,07,17.70
2013,02,21,07,08,17.00
2013,02,21,07,09,16.30
2013,02,21,07,10,17.00
2013,02,21,07,11,17.20
2013,02,21,07,12,12.70
2013,02,21,07,13,17.80
2013,02,21,07,14,20.70
2013,02,21,07,15,20.50
2013,02,21,07,16,23.30
2013,02,21,07,17,21.40
2013,02,21,07,18,21.10
2013,02,21,07,19,22.10
2013,02,21,07,20,17.10
2013,02,21,07,21,16.10
2013,02,21,07,22,20.70
2013,02,21,07,23,28.20
2013,02,21,07,24,24.90
2013,02,21,07,25,18.50
2013,02,21,07,26,17.90
2013,02,21,07,27,12.80
2013,02,21,07,28,15.10
2013,02,21,07,29,16.30
2013,02,21,07,30,18.70
2013,02,21,07,31,11.40
2013,02,21,07,32,18.90
2013,02,21,07,33,23.00
2013,02,21,07,34,22.40
2013,02,21,07,35,23.80
2013,02,21,07,36,27.40
2013,02,21,07,37,20.50
2013,02,21,07,38,25.40
2013,02,21,07,39,23.00
2013,02,21,07,40,24.40
2013,02,21,07,41,14.00
2013,02,21,07,42,16.10
2013,02,21,07,43,18.70
2013,02,21,07,44,21.70
2013,02,21,07,45,17.70
2013,02,21,07,46,21.40
2013,02,21,07,47,18.90
2013,02,21,07,48,21.40
2013,02,21,07,49,21.10
2013,02,21,07,50,17.40
2013,02,21,07,51,16.70
2013,02,21,07,52,20.60
2013,02,21,07,53,24.90
2013,02,21,07,54,22.60
2013,02,21,07,55,23.40
2013,02,21,07,56,17.20
2013,02,21,07,57,18.80
2013,02,21,07,58,20.70
2013,02,21,07,59,16.00
2013,02,21,08,00,24.10
2013,02,21,08,01,25.10
2013,02,21,08,02,21.90
2013,02,21,08,03,24.30
2013,02,21,08,04,29.10
2013,02,21,08,05,21.50
2013,02,21,08,06,25.60
2013,02,21,08,07,19.40
2013,02,21,08,08,21.50
2013,02,21,08,09,16.90
2013,02,21,08,10,19.20
2013,02,21,08,11,21.30
2013,02,21,08,12,13.80
2013,02,21,08,13,20.40
2013,02,21,08,14,17.60
2013,02,21,08,15,16.00
2013,02,21,08,16,24.30
2013,02,21,08,17,21.20
2013,02,21,08,18,27.10
2013,02,21,08,19,20.30
2013,02,21,08,20,20.90
2013,02,21,08,21,21.70
2013,02,21,08,22,24.50
2013,02,21,08,23,23.10
2013,02,21,08,24,25.50
2013,02,21,08,25,22.80
2013,02,21,08,26,16.90
2013,02,21,08,27,24.40
2013,02,21,08,28,26.00
2013,02,21,08,29,17.90
2013,02,21,08,30,26.40
2013,02,21,08,31,20.00
2013,02,21,08,32,20.10
2013,02,21,08,33,24.80
2013,02,21,08,34,23.10
2013,02,21,08,35,24.60
2013,02,21,08,36,21.90
2013,02,21,08,37,24.10
2013,02,21,08,38,15.90
2013,02,21,08,39,24.90
2013,02,21,08,40,22.40
2013,02,21,08,41,23.10
2013,02,21,08,42,21.80
2013,02,21,08,43,15.40
2013,02,21,08,44,30.30
2013,02,21,08,45,26.10
2013,02,21,08,46,26.60
2013,02,21,08,47,22.90
2013,02,21,08,48,19.50
2013,02,21,08,49,16.80
2013,02,21,08,50,15.30
2013,02,21,08,51,17.80
2013,02,21,08,52,20.00
2013,02,21,08,53,17.40
2013,02,21,08,54,17.40
2013,02,21,08,55,16.20
2013,02,21,08,56,16.00
2013,02,21,08,57,17.90
2013,02,21,08,58,17.20
2013,02,21,08,59,16.50
2013,02,21,09,00,19.70
2013,02,21,09,01,17.00
2013,02,21,09,02,20.70
2013,02,21,09,03,16.30
2013,02,21,09,04,19.20
2013,02,21,09,05,17.70
2013,02,21,09,06,21.40
2013,02,21,09,07,18.30
2013,02,21,09,08,21.80
2013,02,21,09,09,18.10
2013,02,21,09,10,20.40
2013,02,21,09,11,18.20
2013,02,21,09,12,17.80
2013,02,21,09,13,19.20
2013,02,21,09,14,13.80
2013,02,21,09,15,17.50
2013,02,21,09,16,5.00
2013,02,21,09,17,1.40
2013,02,21,09,18,5.80
2013,02,21,09,19,9.30
2013,02,21,09,20,8.30
2013,02,21,09,21,1.00
2013,02,21,09,22,7.10
2013,02,21,09,23,9.80
2013,02,21,09,24,0.00
2013,02,21,09,25,0.00
2013,02,21,09,26,0.00
2013,02,21,09,27,6.10
2013,02,21,09,28,8.70
2013,02,21,09,29,4.80
2013,02,21,09,30,7.40
2013,02,21,09,31,9.60
2013,02,21,09,32,7.50
2013,02,21,09,33,1.80
2013,02,21,09,34,0.20
2013,02,21,09,35,2.20
2013,02,21,09,36,2.60
2013,02,21,09,37,6.30
2013,02,21,09,38,0.00
2013,02,21,09,39,0.00
2013,02,21,09,40,0.50
2013,02,21,09,41,3.70
2013,02,21,09,42,8.80
2013,02,21,09,43,6.30
2013,02,21,09,44,5.50
2013,02,21,09,45,12.40
2013,02,21,09,46,9.30
2013,02,21,09,47,9.30
2013,02,21,09,48,7.90
2013,02,21,09,49,6.80
2013,02,21,09,50,21.10
2013,02,21,09,51,19.70
2013,02,21,09,52,16.60
2013,02,21,09,53,11.30
2013,02,21,09,54,14.40
2013,02,21,09,55,15.00
2013,02,21,09,56,8.00
2013,02,21,09,57,12.00
2013,02,21,09,58,15.20
2013,02,21,09,59,17.00
2013,02,21,10,00,19.80
2013,02,21,10,01,15.50
2013,02,21,10,02,10.40
2013,02,21,10,03,13.50
2013,02,21,10,04,18.50
2013,02,21,10,05,13.40
2013,02,21,10,06,12.80
2013,02,21,10,07,12.70
2013,02,21,10,08,14.30
2013,02,21,10,09,14.10
2013,02,21,10,10,8.00
2013,02,21,10,11,6.80
2013,02,21,10,12,9.90
2013,02,21,10,13,11.30
2013,02,21,10,14,4.90
2013,02,21,10,15,15.10
2013,02,21,10,16,9.70
2013,02,21,10,17,12.20
2013,02,21,10,18,15.60
2013,02,21,10,19,16.00
2013,02,21,10,20,9.50
2013,02,21,10,21,6.80
2013,02,21,10,22,8.90
2013,02,21,10,23,17.40
2013,02,21,10,24,10.70
2013,02,21,10,25,5.20
2013,02,21,10,26,17.80
2013,02,21,10,27,7.20
2013,02,21,10,28,19.40
2013,02,21,10,29,8.50
2013,02,21,10,30,13.00
2013,02,21,10,31,15.80
2013,02,21,10,32,12.50
2013,02,21,10,33,11.30
2013,02,21,10,34,12.90
2013,02,21,10,35,5.40
2013,02,21,10,36,7.60
2013,02,21,10,37,5.20
2013,02,21,10,38,8.90
2013,02,21,10,39,8.70
2013,02,21,10,40,7.40
2013,02,21,10,41,19.60
2013,02,21,10,42,13.80
2013,02,21,10,43,14.70
2013,02,21,10,44,10.90
2013,02,21,10,45,12.80
2013,02,21,10,46,1.50
2013,02,21,10,47,2.70
2013,02,21,10,48,8.50
2013,02,21,10,49,9.50
2013,02,21,10,50,9.80
2013,02,21,10,51,13.70
2013,02,21,10,52,13.00
2013,02,21,10,53,12.40
2013,02,21,10,54,8.20
2013,02,21,10,55,3.90
2013,02,21,10,56,13.60
2013,02,21,10,57,12.80
2013,02,21,10,58,9.50
2013,02,21,10,59,5.50
2013,02,21,11,00,3.20
2013,02,21,11,01,9.80
2013,02,21,11,02,3.30
2013,02,21,11,03,2.30
2013,02,21,11,04,9.10
2013,02,21,11,05,11.20
2013,02,21,11,06,10.30
2013,02,21,11,07,11.50
2013,02,21,11,08,17.50
2013,02,21,11,09,13.60
2013,02,21,11,10,14.80
2013,02,21,11,11,16.40
2013,02,21,11,12,11.10
2013,02,21,11,13,11.60
2013,02,21,11,14,6.10
2013,02,21,11,15,2.80
2013,02,21,11,16,3.30
2013,02,21,11,17,12.20
2013,02,21,11,18,16.70
2013,02,21,11,19,13.60
2013,02,21,11,20,16.50
2013,02,21,11,21,10.10
2013,02,21,11,22,12.40
2013,02,21,11,23,10.50
2013,02,21,11,24,7.20
2013,02,21,11,25,0.60
2013,02,21,11,26,2.80
2013,02,21,11,27,11.30
2013,02,21,11,28,10.50
2013,02,21,11,29,13.40
2013,02,21,11,30,10.50
2013,02,21,11,31,16.60
2013,02,21,11,32,10.30
2013,02,21,11,33,5.00
2013,02,21,11,34,11.60
2013,02,21,11,35,5.10
2013,02,21,11,36,14.10
2013,02,21,11,37,11.60
2013,02,21,11,38,8.80
2013,02,21,11,39,15.20
2013,02,21,11,40,15.60
2013,02,21,11,41,13.90
2013,02,21,11,42,18.80
2013,02,21,11,43,11.30
2013,02,21,11,44,15.40
2013,02,21,11,45,11.80
2013,02,21,11,46,13.10
2013,02,21,11,47,6.50
2013,02,21,11,48,13.40
2013,02,21,11,49,8.60
2013,02,21,11,50,10.30
2013,02,21,11,51,10.50
2013,02,21,11,52,12.00
2013,02,21,11,53,6.80
2013,02,21,11,54,9.20
2013,02,21,11,55,15.40
2013,02,21,11,56,15.90
2013,02,21,11,57,13.10
2013,02,21,11,58,10.00
2013,02,21,11,59,17.10
2013,02,21,12,00,11.90
2013,02,21,12,01,9.90
2013,02,21,12,02,9.20
2013,02,21,12,03,9.70
2013,02,21,12,04,9.30
2013,02,21,12,05,6.90
2013,02,21,12,06,3.40
2013,02,21,12,07,4.90
2013,02,21,12,08,1.80
2013,02,21,12,09,0.00
2013,02,21,12,10,0.00
2013,02,21,12,11,0.00
2013,02,21,12,12,0.00
2013,02,21,12,13,1.30
2013,02,21,12,14,4.70
2013,02,21,12,15,1.00
2013,02,21,12,16,7.50
2013,02,21,12,17,6.40
2013,02,21,12,18,6.20
2013,02,21,12,19,5.40
2013,02,21,12,20,9.30
2013,02,21,12,21,3.90
2013,02,21,12,22,8.90
2013,02,21,12,23,7.30
2013,02,21,12,24,0.60
2013,02,21,12,25,0.00
2013,02,21,12,26,0.00
2013,02,21,12,27,0.00
2013,02,21,12,28,0.00
2013,02,21,12,29,7.60
2013,02,21,12,30,5.30
2013,02,21,12,31,0.00
2013,02,21,12,32,1.10
2013,02,21,12,33,9.70
2013,02,21,12,34,5.80
2013,02,21,12,35,7.60
2013,02,21,12,36,6.20
2013,02,21,12,37,10.50
2013,02,21,12,38,9.30
2013,02,21,12,39,4.80
2013,02,21,12,40,3.10
2013,02,21,12,41,0.80
2013,02,21,12,42,11.30
2013,02,21,12,43,13.40
2013,02,21,12,44,9.80
2013,02,21,12,45,7.90
2013,02,21,12,46,10.20
2013,02,21,12,47,8.00
2013,02,21,12,48,6.80
2013,02,21,12,49,1.90
2013,02,21,12,50,6.40
2013,02,21,12,51,7.50
2013,02,21,12,52,6.00
2013,02,21,12,53,4.30
2013,02,21,12,54,7.80
2013,02,21,12,55,5.10
2013,02,21,12,56,10.80
2013,02,21,12,57,6.40
2013,02,21,12,58,7.00
2013,02,21,12,59,4.70
2013,02,21,13,00,2.70
2013,02,21,13,01,10.10
2013,02,21,13,02,10.50
2013,02,21,13,03,6.30
2013,02,21,13,04,9.90
2013,02,21,13,05,11.00
2013,02,21,13,06,14.00
2013,02,21,13,07,6.60
2013,02,21,13,08,7.60
2013,02,21,13,09,12.30
2013,02,21,13,10,10.40
2013,02,21,13,11,9.90
2013,02,21,13,12,12.60
2013,02,21,13,13,11.70
2013,02,21,13,14,16.70
2013,02,21,13,15,8.40
2013,02,21,13,16,7.40
2013,02,21,13,17,12.20
2013,02,21,13,18,11.00
2013,02,21,13,19,7.60
2013,02,21,13,20,8.30
2013,02,21,13,21,12.60
2013,02,21,13,22,15.00
2013,02,21,13,23,11.50
2013,02,21,13,24,10.20
2013,02,21,13,25,10.00
2013,02,21,13,26,2.30
2013,02,21,13,27,7.20
2013,02,21,13,28,9.80
2013,02,21,13,29,10.30
2013,02,21,13,30,9.30
2013,02,21,13,31,3.70
2013,02,21,13,32,6.40
2013,02,21,13,33,10.80
2013,02,21,13,34,10.80
2013,02,21,13,35,9.60
2013,02,21,13,36,4.40
2013,02,21,13,37,3.10
2013,02,21,13,38,3.10
2013,02,21,13,39,11.10
2013,02,21,13,40,8.90
2013,02,21,13,41,12.80
2013,02,21,13,42,14.60
2013,02,21,13,43,12.10
2013,02,21,13,44,6.40
2013,02,21,13,45,6.00
2013,02,21,13,46,10.10
2013,02,21,13,47,13.00
2013,02,21,13,48,13.00
2013,02,21,13,49,12.10
2013,02,21,13,50,12.70
2013,02,21,13,51,14.50
2013,02,21,13,52,14.20
2013,02,21,13,53,9.30
2013,02,21,13,54,11.30
2013,02,21,13,55,6.20
2013,02,21,13,56,13.00
2013,02,21,13,57,18.10
2013,02,21,13,58,13.90
2013,02,21,13,59,13.70
2013,02,21,14,00,9.50
2013,02,21,14,01,11.20
2013,02,21,14,02,7.70
2013,02,21,14,03,12.40
2013,02,21,14,04,18.60
2013,02,21,14,05,13.90
2013,02,21,14,06,12.50
2013,02,21,14,07,10.00
2013,02,21,14,08,9.40
2013,02,21,14,09,11.70
2013,02,21,14,10,10.10
2013,02,21,14,11,8.70
2013,02,21,14,12,7.60
2013,02,21,14,13,13.80
2013,02,21,14,14,17.00
2013,02,21,14,15,15.90
2013,02,21,14,16,15.40
2013,02,21,14,17,7.00
2013,02,21,14,18,7.60
2013,02,21,14,19,9.70
2013,02,21,14,20,7.40
2013,02,21,14,21,8.20
2013,02,21,14,22,1.40
2013,02,21,14,23,0.00
2013,02,21,14,24,0.00
2013,02,21,14,25,1.60
2013,02,21,14,26,0.00
2013,02,21,14,27,3.10
2013,02,21,14,28,7.10
2013,02,21,14,29,8.50
2013,02,21,14,30,5.30
2013,02,21,14,31,0.50
2013,02,21,14,32,12.00
2013,02,21,14,33,15.70
2013,02,21,14,34,5.30
2013,02,21,14,35,5.80
2013,02,21,14,36,5.50
2013,02,21,14,37,7.30
2013,02,21,14,38,6.00
2013,02,21,14,39,1.20
2013,02,21,14,40,7.10
2013,02,21,14,41,9.80
2013,02,21,14,42,9.00
2013,02,21,14,43,8.40
2013,02,21,14,44,8.90
2013,02,21,14,45,13.40
2013,02,21,14,46,8.50
2013,02,21,14,47,10.00
2013,02,21,14,48,13.00
2013,02,21,14,49,8.70
2013,02,21,14,50,13.60
2013,02,21,14,51,13.00
2013,02,21,14,52,13.80
2013,02,21,14,53,13.00
2013,02,21,14,54,11.70
2013,02,21,14,55,9.60
2013,02,21,14,56,10.50
2013,02,21,14,57,7.90
2013,02,21,14,58,5.80
2013,02,21,14,59,7.60
2013,02,21,15,00,12.60
2013,02,21,15,01,18.50
2013,02,21,15,02,18.00
2013,02,21,15,03,10.80
2013,02,21,15,04,12.60
2013,02,21,15,05,6.40
2013,02,21,15,06,7.30
2013,02,21,15,07,15.10
2013,02,21,15,08,10.90
2013,02,21,15,09,6.30
2013,02,21,15,10,7.10
2013,02,21,15,11,3.00
2013,02,21,15,12,2.50
2013,02,21,15,13,8.20
2013,02,21,15,14,10.50
2013,02,21,15,15,12.90
2013,02,21,15,16,8.80
2013,02,21,15,17,7.80
2013,02,21,15,18,8.80
2013,02,21,15,19,8.20
2013,02,21,15,20,12.70
2013,02,21,15,21,10.70
2013,02,21,15,22,6.20
2013,02,21,15,23,10.80
2013,02,21,15,24,15.00
2013,02,21,15,25,18.50
2013,02,21,15,26,13.40
2013,02,21,15,27,19.10
2013,02,21,15,28,12.10
2013,02,21,15,29,8.80
2013,02,21,15,30,11.60
2013,02,21,15,31,13.00
2013,02,21,15,32,16.80
2013,02,21,15,33,8.80
2013,02,21,15,34,12.20
2013,02,21,15,35,11.50
2013,02,21,15,36,8.90
2013,02,21,15,37,13.70
2013,02,21,15,38,17.40
2013,02,21,15,39,18.80
2013,02,21,15,40,17.90
2013,02,21,15,41,18.20
2013,02,21,15,42,17.90
2013,02,21,15,43,17.20
2013,02,21,15,44,21.90
2013,02,21,15,45,17.50
2013,02,21,15,46,18.10
2013,02,21,15,47,21.50
2013,02,21,15,48,23.70
2013,02,21,15,49,20.00
2013,02,21,15,50,17.30
2013,02,21,15,51,11.80
2013,02,21,15,52,18.10
2013,02,21,15,53,13.00
2013,02,21,15,54,15.00
2013,02,21,15,55,16.80
2013,02,21,15,56,14.20
2013,02,21,15,57,12.90
2013,02,21,15,58,21.90
2013,02,21,15,59,19.10
2013,02,21,16,00,20.30
2013,02,21,16,01,21.60
2013,02,21,16,02,19.60
2013,02,21,16,03,27.00
2013,02,21,16,04,23.40
2013,02,21,16,05,20.40
2013,02,21,16,06,16.90
2013,02,21,16,07,18.70
2013,02,21,16,08,14.60
2013,02,21,16,09,16.90
2013,02,21,16,10,15.20
2013,02,21,16,11,20.00
2013,02,21,16,12,11.70
2013,02,21,16,13,13.10
2013,02,21,16,14,12.40
2013,02,21,16,15,9.10
2013,02,21,16,16,6.90
2013,02,21,16,17,7.60
2013,02,21,16,18,10.10
2013,02,21,16,19,13.50
2013,02,21,16,20,11.30
2013,02,21,16,21,13.10
2013,02,21,16,22,16.80
2013,02,21,16,23,14.20
2013,02,21,16,24,10.90
2013,02,21,16,25,16.10
2013,02,21,16,26,16.30
2013,02,21,16,27,16.90
2013,02,21,16,28,11.10
2013,02,21,16,29,15.80
2013,02,21,16,30,14.20
2013,02,21,16,31,17.30
2013,02,21,16,32,24.00
2013,02,21,16,33,21.10
2013,02,21,16,34,20.00
2013,02,21,16,35,17.40
2013,02,21,16,36,17.10
2013,02,21,16,37,12.90
2013,02,21,16,38,16.40
2013,02,21,16,39,17.90
2013,02,21,16,40,19.80
2013,02,21,16,41,17.20
2013,02,21,16,42,13.80
2013,02,21,16,43,17.40
2013,02,21,16,44,21.00
2013,02,21,16,45,15.20
2013,02,21,16,46,18.10
2013,02,21,16,47,13.20
2013,02,21,16,48,16.90
2013,02,21,16,49,14.40
2013,02,21,16,50,20.50
2013,02,21,16,51,21.40
2013,02,21,16,52,20.00
2013,02,21,16,53,16.90
2013,02,21,16,54,12.70
2013,02,21,16,55,17.60
2013,02,21,16,56,24.10
2013,02,21,16,57,21.30
2013,02,21,16,58,22.80
2013,02,21,16,59,20.40
2013,02,21,17,00,16.70
2013,02,21,17,01,18.40
2013,02,21,17,02,18.80
2013,02,21,17,03,24.50
2013,02,21,17,04,21.20
2013,02,21,17,05,13.60
2013,02,21,17,06,12.30
2013,02,21,17,07,18.10
2013,02,21,17,08,14.30
2013,02,21,17,09,13.90
2013,02,21,17,10,19.90
2013,02,21,17,11,20.70
2013,02,21,17,12,18.50
2013,02,21,17,13,19.90
2013,02,21,17,14,18.00
2013,02,21,17,15,20.80
2013,02,21,17,16,18.60
2013,02,21,17,17,17.20
2013,02,21,17,18,21.80
2013,02,21,17,19,19.80
2013,02,21,17,20,18.40
2013,02,21,17,21,17.00
2013,02,21,17,22,19.00
2013,02,21,17,23,16.60
2013,02,21,17,24,17.00
2013,02,21,17,25,19.30
2013,02,21,17,26,19.50
2013,02,21,17,27,18.10
2013,02,21,17,28,14.70
2013,02,21,17,29,15.90
2013,02,21,17,30,14.20
2013,02,21,17,31,17.90
2013,02,21,17,32,20.30
2013,02,21,17,33,14.60
2013,02,21,17,34,19.10
2013,02,21,17,35,12.90
2013,02,21,17,36,11.70
2013,02,21,17,37,15.20
2013,02,21,17,38,17.40
2013,02,21,17,39,18.00
2013,02,21,17,40,13.90
2013,02,21,17,41,19.20
2013,02,21,17,42,18.70